Location: Brantley
(31.5822°N, 86.2569°W)
Time: 17:17:30
(UTC+00:00)

Injun/Solrad 3 - Pass Details

Date: 18 February 2026
Orbit: 871 x 985 km, 66.8° (Epoch: 11 March)

Event Time Altitude Azimuth Distance (km) Brightness Sun altitude
Rises 17:55:01 0° 252° (WSW) 3,450 11.0 47.0°
Reaches altitude 10° 17:58:37 10° 274° (W) 2,521 10.3 47.0°
Maximum altitude 18:01:55 15° 309° (NW) 2,175 9.7 47.0°
Drops below altitude 10° 18:05:16 10° 345° (NNW) 2,549 9.9 47.0°
Sets 18:08:58 0° 7° (N) 3,511 10.5 46.9°
